Showing default

HULIANWANG DIGUI-181, 100206

Orbit data source: Space-Track

HULIANWANG DIGUI-181, 100206 is a payload satellite owned by Zhongguo Xingwang (CN) in LEO that was launched on Tue, 04 Aug 2026 UTC launched from the Wenchang Satellite Launch Center (WSC). Payload-class satellites include a variety of spacecraft equipped with specific instruments for various scientific and technological missions. These include communications satellites like Starlink; space stations such as the ISS; scientific satellites like the Hubble; Earth observation satellites from companies like Planet Labs, Umbra, and HawkEye 360; GPS; miniature CubeSats for education and research; and military/defense satellites.

Loading next visibility...
Identifier
100206, 2026-176D
Orbit
LEO
Country
Flag of CNCN / PRC
Related business
Manufacturer
CAST?
Mission
Operational spacecraft
Bus & Motor
XINGWANG C, Unknown motor
Mass
~700 kg wet, ~700 kg dry
Launch date (UTC)
2026-08-04 (1 month ago)
Launch vehicle
Unknown
Launch site
Wenchang Satellite Launch Center (WSC)
Object type
Payload
Rocket body
Debris
Shape & HBR
BOX + 2 PAN, 5.0 m
Radar Cross Section
Large (>1 m²)

Expand to show TLE details & history
Last TLE update: 8 hours ago

TLE from 8 hours ago
0 HULIANWANG DIGUI-181
1 A0206U 26176D   26251.44053995 -.00000070  00000-0  11635-3 0  9992
2 A0206  49.9915 267.2939 0000159 329.9186  30.1677 13.29328281  4690
Epoch: 2026-09-08T10:34Z
TLE epoch observation values (Epoch: 2026-09-08T10:34:22.651Z)
Latitude
-0.00001°
Longitude
121.19259°
Altitude
1,149.7 km
Speed
7.279 km/s
True Right ascension
17h 49m 10s
True Declination
0° 00' 00"
Sunlit
Object was in daylight at epoch
Visualization orbit readout
Latitude
Unknown
Longitude
Unknown
Altitude
Unknown
Speed
Unknown
Apparent Right ascension
Unknown
Apparent Declination
Unknown
Sunlit
N/A
Visualization observer readout
Local Sidereal Time
11:07:37
Azimuth
Unknown
Elevation
Unknown
Doppler factor
Unknown
Orbital elements
Apogee altitude
1,150.124 km
Perigee altitude
1,149.885 km
Semi-major axis
7,528.142 km
Eccentricity
0.00002
Inclination
49.9915°
RAAN
267.2939°
Arg. of periapsis
329.9186°
True anomaly
30.16862°
Mean anomaly
30.1677°
Eccentric anomaly
30.16816°
Mean motion
3.32286 °/min
Orbital period
108.34 mins
BSTAR
0.00011635
Loading maneuver chart data...
Computing Atmospheric mass density...
Loading historical data...
Loading historical data...
Loading historical data...
Loading historical data...
Loading historical data...
Loading historical data...
Loading historical data...

Documentation

Showing up to 5 results
|